Zurück zum Katalog

COSMOS 1034

AktivMilitärLEO
NORAD 11042·PAYLOAD·🇷🇺 Russia

Gestartet Oct 4, 1978 von Plesetsk Cosmodrome

Loading…

Nächste Überflüge (nächste 24 Stunden)

TLE

AktuellSource: Space-Track

Epoche: Sep 14, 2026, 06:02 UTC

1 11042U 78091A   26257.25203889 -.00000026  00000-0 -64331-4 0  9993
2 11042  74.0325  80.8184 0037945 263.3774 207.7560 12.53201899193404

Verfolge COSMOS 1034 in Echtzeit mit AllMySat

Download on the App Store